Flag for Jersey

Past Weather in Saint Helier, Jersey — Yesterday and Last 2 Weeks

Currently: 46 °F. Passing clouds. (Weather station: Jersey Airport, Jersey). See more current weather

Past Weather in Saint Helier — Graph

°F

Saint Helier Temperature Yesterday

Maximum temperature yesterday: 50 °F (at 2:50 pm)
Minimum temperature yesterday: 37 °F (at 12:20 am)
Average temperature yesterday: 44 °F

High & Low Weather Summary for the Past Weeks

 TemperatureHumidityPressure
High72 °F (Apr 1, 11:20 am)94% (Apr 10, 12:20 pm)30.51 "Hg (Apr 10, 12:20 pm)
Low36 °F (Apr 7, 6:20 am)38% (Apr 1, 11:20 am)29.83 "Hg (Apr 10, 5:50 am)
Average45 °F70%30.24 "Hg
* Reported Apr 1 8:20 am — Apr 16 8:20 am, Saint Helier. Weather by CustomWeather, © 2021

Note: Actual official high and low records may vary slightly from our data, if they occured in-between our weather recording intervals... More about our weather records

Saint Helier Weather History for the Previous 24 Hours

Scroll right to see more
 ConditionsComfort  
Time TempWeatherWind HumidityBarometerVisibility
8:20 am
Fri, Apr 16
46 °FScattered clouds.7 mph76%30.39 "HgN/A
7:50 am45 °FPassing clouds.5 mph76%30.39 "HgN/A
7:20 am43 °FPassing clouds.5 mph76%30.39 "HgN/A
6:50 am41 °FPassing clouds.7 mph76%30.39 "HgN/A
6:20 am41 °FPassing clouds.7 mph76%30.39 "HgN/A
5:50 am41 °FPassing clouds.7 mph76%30.39 "HgN/A
5:20 am41 °FQuite cool.8 mph76%30.39 "HgN/A
4:50 am41 °FPassing clouds.7 mph76%30.39 "HgN/A
4:20 am41 °FQuite cool.8 mph76%30.39 "HgN/A
3:50 am41 °FQuite cool.7 mph76%30.39 "HgN/A
3:20 am41 °FQuite cool.8 mph76%30.39 "HgN/A
2:50 am41 °FQuite cool.9 mph76%30.39 "HgN/A
2:20 am41 °FQuite cool.8 mph76%30.39 "HgN/A
1:50 am41 °FQuite cool.8 mph76%30.39 "HgN/A
1:20 am41 °FQuite cool.7 mph76%30.42 "HgN/A
12:50 am41 °FQuite cool.8 mph76%30.42 "HgN/A
12:20 am43 °FQuite cool.7 mph71%30.42 "HgN/A
11:50 pm
Thu, Apr 15
43 °FQuite cool.8 mph71%30.42 "HgN/A
11:20 pm43 °FQuite cool.8 mph71%30.42 "HgN/A
10:50 pm43 °FQuite cool.9 mph71%30.42 "HgN/A
10:20 pm43 °FQuite cool.9 mph71%30.42 "HgN/A
9:50 pm43 °FQuite cool.10 mph71%30.42 "HgN/A
9:20 pm43 °FQuite cool.9 mph71%30.42 "HgN/A
8:50 pm43 °FClear.10 mph66%30.42 "Hg10 mi
8:20 pm45 °FPassing clouds.9 mph61%30.42 "HgN/A
7:50 pm45 °FPassing clouds.12 mph61%30.42 "HgN/A
7:20 pm46 °FPassing clouds.14 mph57%30.39 "HgN/A
6:50 pm46 °FPassing clouds.13 mph53%30.39 "HgN/A
6:20 pm46 °FPassing clouds.16 mph57%30.39 "HgN/A
5:50 pm46 °FPassing clouds.16 mph57%30.39 "HgN/A
5:20 pm48 °FPassing clouds.13 mph58%30.42 "HgN/A
4:50 pm48 °FPassing clouds.14 mph54%30.42 "HgN/A
4:20 pm48 °FPassing clouds.14 mph54%30.42 "HgN/A
3:50 pm50 °FPassing clouds.15 mph50%30.42 "HgN/A
3:20 pm48 °FPassing clouds.15 mph54%30.42 "HgN/A
2:50 pm50 °FPassing clouds.15 mph50%30.42 "HgN/A
2:20 pm48 °FPassing clouds.16 mph54%30.42 "HgN/A
1:50 pm48 °FPassing clouds.14 mph50%30.45 "HgN/A
1:20 pm48 °FPassing clouds.15 mph50%30.45 "HgN/A
12:50 pm48 °FPassing clouds.16 mph54%30.45 "HgN/A
12:20 pm48 °FPassing clouds.13 mph54%30.45 "HgN/A
11:50 am46 °FPassing clouds.13 mph62%30.45 "HgN/A
11:20 am46 °FPassing clouds.13 mph66%30.45 "HgN/A
10:50 am46 °FPassing clouds.14 mph62%30.45 "HgN/A
10:20 am46 °FPassing clouds.14 mph66%30.45 "HgN/A
Weather by CustomWeather, © 2021

See weather overview